Rangeley, Maine, United States (04970)
Lat: 44.97N, Lon: 70.64W
Wx Zone: MEZ008
Local Info
Past Weather Observations for Today

NOTE: This archive is for the closest National Weather Service station to Rangeley. Information may differ from the station used for current weather conditions.

Click here for Long-term Archive

Time Weather Temperature Dewpoint Humidity Pressure Winds Precip Visibility
22:52
Mostly Cloudy
32°F / 0°C 30°F / -1°C 93% 29.89 in
(1012 mb)
Calm - 10SM
21:52
Partly Cloudy
34°F / 1°C 30°F / -1°C 87% 29.86 in
(1011 mb)
Calm - 10SM
20:52
Partly Cloudy
36°F / 2°C 32°F / 0°C 87% 29.86 in
(1011 mb)
Calm - 10SM
19:52
Clear
37°F / 3°C 34°F / 1°C 87% 29.83 in
(1010 mb)
Calm - 10SM
18:52
Clear
46°F / 8°C 37°F / 3°C 71% 29.83 in
(1010 mb)
Calm - 10SM
17:52
Partly Cloudy
57°F / 14°C 39°F / 4°C 51% 29.8 in
(1009 mb)
Variable 3.5 mph
(Variable 6 kph)
- 10SM
16:52
Partly Cloudy
61°F / 16°C 39°F / 4°C 45% 29.8 in
(1009 mb)
SSW 8.1 mph
(SSW 13 kph)
- 10SM
15:52
Partly Cloudy
61°F / 16°C 43°F / 6°C 52% 29.83 in
(1010 mb)
Variable 4.6 mph
(Variable 7 kph)
- 10SM
14:52
Overcast
55°F / 13°C 43°F / 6°C 63% 29.83 in
(1010 mb)
N 5.8 mph
(N 9 kph)
- 10SM
13:52
Overcast
52°F / 11°C 43°F / 6°C 72% 29.83 in
(1010 mb)
Calm - 10SM
12:52
Overcast
52°F / 11°C 43°F / 6°C 72% 29.86 in
(1011 mb)
SSW 4.6 mph
(SSW 7 kph)
- 10SM
11:52
Overcast
52°F / 11°C 43°F / 6°C 72% 29.89 in
(1012 mb)
Calm - 10SM
11:06
Overcast
52°F / 11°C 43°F / 6°C 72% 29.89 in
(1012 mb)
Variable 5.8 mph
(Variable 9 kph)
- 10SM
10:52
Overcast
52°F / 11°C 43°F / 6°C 72% 29.89 in
(1012 mb)
SSW 8.1 mph
(SSW 13 kph)
- 10SM
10:35
Overcast
52°F / 11°C 43°F / 6°C 72% 29.89 in
(1012 mb)
Variable 3.5 mph
(Variable 6 kph)
- 10SM
09:59
Overcast
48°F / 9°C 43°F / 6°C 82% 29.89 in
(1012 mb)
Calm - 10SM
09:52
Overcast
48°F / 9°C 43°F / 6°C 82% 29.92 in
(1013 mb)
Calm - 10SM
09:45
Overcast
48°F / 9°C 43°F / 6°C 82% 29.92 in
(1013 mb)
Variable 3.5 mph
(Variable 6 kph)
- 10SM
09:38
Overcast
46°F / 8°C 43°F / 6°C 87% 29.92 in
(1013 mb)
E 4.6 mph
(E 7 kph)
- 10SM
09:30
Overcast
46°F / 8°C 43°F / 6°C 87% 29.92 in
(1013 mb)
NE 4.6 mph
(NE 7 kph)
- 10SM
08:52
Overcast
46°F / 8°C 41°F / 5°C 82% 29.95 in
(1014 mb)
Calm 0.06 in
(1.52 mm)
10SM
08:48
Overcast
46°F / 8°C 41°F / 5°C 82% 29.95 in
(1014 mb)
Calm 0.05 in
(1.27 mm)
10SM
08:25
Overcast
Light Rain
45°F / 7°C 43°F / 6°C 93% 29.95 in
(1014 mb)
Calm 0.05 in
(1.27 mm)
9SM
07:52
Overcast
Light Rain
45°F / 7°C 39°F / 4°C 81% 29.95 in
(1014 mb)
Variable 3.5 mph
(Variable 6 kph)
0.00 in
(0.00 mm)
8SM
07:43
Overcast
45°F / 7°C 39°F / 4°C 81% 29.95 in
(1014 mb)
Variable 3.5 mph
(Variable 6 kph)
- 10SM
06:52
Overcast
45°F / 7°C 39°F / 4°C 81% 29.95 in
(1014 mb)
S 4.6 mph
(S 7 kph)
0.05 in
(1.27 mm)
10SM
06:35
Overcast
Light Rain
45°F / 7°C 39°F / 4°C 81% 29.98 in
(1015 mb)
E 5.8 mph
(E 9 kph)
0.05 in
(1.27 mm)
5SM
06:28
Overcast
Rain
43°F / 6°C 39°F / 4°C 87% 29.98 in
(1015 mb)
E 3.5 mph
(E 6 kph)
0.05 in
(1.27 mm)
2 1/2SM
05:52
Overcast
Light Rain
45°F / 7°C 37°F / 3°C 76% 29.98 in
(1015 mb)
SSW 3.5 mph
(SSW 6 kph)
0.02 in
(0.51 mm)
10SM
04:52
Overcast
50°F / 10°C 27°F / -3°C 40% 29.98 in
(1015 mb)
Variable 6.9 mph
(Variable 11 kph)
- 10SM
03:52
Mostly Cloudy
37°F / 3°C 28°F / -2°C 70% 29.98 in
(1015 mb)
NNW 3.5 mph
(NNW 6 kph)
- 10SM
02:52
Clear
36°F / 2°C 28°F / -2°C 75% 30.01 in
(1016 mb)
Calm - 10SM
01:52
Clear
36°F / 2°C 28°F / -2°C 75% 30.01 in
(1016 mb)
Calm - 10SM
00:52
Clear
34°F / 1°C 27°F / -3°C 75% 30.04 in
(1017 mb)
Calm - 10SM
Time Weather Temperature Dewpoint Humidity Pressure Winds Precip Visibility


Weather for websites

WeatherForYou.com, LLC is not responsible for any damages or problems caused by this service. Current weather conditions are obtained from the closest station including government and personal stations which may have varying degrees of accuracy. Weather forecasts are derived from the NOAA NDFD. Like all things, this site belongs to Jesus Christ... He just trusts me to maintain it. If you have any questions or comments email webmaster@weatherforyou.com

Copyright © 2015, WeatherForYou.com LLC. All rights reserved.